When you browse on this site, cookies collect data to enhance your experience and personalize the content and advertising you see.
Visit our Privacy Policy to learn more. By continuing to use the site, you agree to this use of cookies and data.
  • En España
  • Lista de países
  • Para 7 días
  • Temperatura del agua
  • El tiempo en el mapa
  • Informadores
  • user-avatar
    Iniciar sesión

    Tiempo cada hora Revolyucii

    Hoy, 20 Agosto, Martes

    Tiempo Temperatura Precipitaciones Viento Presión Humedad
    00:00 +15°C° 0 mm 0 mps 748 mmHg 86%
    01:00 +15°C° 0 mm 0 mps 748 mmHg 86%
    02:00 +15°C° 0 mm 0 mps 748 mmHg 86%
    03:00 +15°C° 0 mm 0 mps 749 mmHg 86%
    04:00 +15°C° 0 mm 0 mps 749 mmHg 86%
    05:00 +15°C° 0 mm 0 mps 749 mmHg 86%
    06:00 +17°C° 0 mm 0 mps 749 mmHg 81%
    07:00 +18°C° 0 mm 0 mps 749 mmHg 76%
    08:00 +22°C° 0 mm 1 mps 749 mmHg 71%
    09:00 +23°C° 0 mm 1 mps 750 mmHg 67%
    10:00 +25°C° 0 mm 1 mps 750 mmHg 62%
    11:00 +26°C° 0 mm 1 mps 750 mmHg 58%
    12:00 +26°C° 0 mm 1 mps 749 mmHg 57%
    13:00 +27°C° 0 mm 1 mps 749 mmHg 55%
    14:00 +27°C° 0 mm 1 mps 749 mmHg 54%
    15:00 +27°C° 0 mm 1 mps 749 mmHg 58%
    16:00 +27°C° 0 mm 1 mps 749 mmHg 62%
    17:00 +27°C° 0 mm 1 mps 749 mmHg 65%
    18:00 +25°C° 0 mm 1 mps 749 mmHg 68%
    19:00 +23°C° 0 mm 1 mps 750 mmHg 71%
    20:00 +21°C° 0 mm 1 mps 750 mmHg 74%
    21:00 +21°C° 0 mm 1 mps 750 mmHg 75%
    22:00 +20°C° 0 mm 1 mps 750 mmHg 77%
    23:00 +20°C° 0 mm 1 mps 750 mmHg 78%

    Mañana, 21 Agosto, Miércoles

    Tiempo Temperatura Precipitaciones Viento Presión Humedad
    00:00 +20°C° 0 mm 1 mps 750 mmHg 79%
    01:00 +19°C° 0 mm 1 mps 750 mmHg 81%
    02:00 +19°C° 0 mm 1 mps 750 mmHg 82%
    03:00 +19°C° 0 mm 1 mps 750 mmHg 82%
    04:00 +19°C° 0 mm 1 mps 750 mmHg 83%
    05:00 +19°C° 0 mm 1 mps 750 mmHg 83%
    06:00 +20°C° 0 mm 1 mps 750 mmHg 79%
    07:00 +22°C° 0 mm 1 mps 750 mmHg 74%
    08:00 +24°C° 0 mm 1 mps 751 mmHg 70%
    09:00 +25°C° 0 mm 1 mps 750 mmHg 66%
    10:00 +24°C° 0 mm 0 mps 750 mmHg 63%
    11:00 +26°C° 0 mm 0 mps 750 mmHg 59%
    12:00 +26°C° 0 mm 0 mps 750 mmHg 58%
    13:00 +29°C° 0 mm 1 mps 750 mmHg 56%
    14:00 +29°C° 0 mm 1 mps 750 mmHg 55%
    15:00 +29°C° 0 mm 1 mps 749 mmHg 59%
    16:00 +28°C° 0 mm 1 mps 749 mmHg 62%
    17:00 +28°C° 0 mm 1 mps 749 mmHg 66%
    18:00 +26°C° 0 mm 1 mps 749 mmHg 69%
    19:00 +25°C° 0 mm 1 mps 749 mmHg 73%
    20:00 +23°C° 0 mm 1 mps 749 mmHg 76%
    21:00 +23°C° 0 mm 1 mps 749 mmHg 78%
    22:00 +22°C° 0 mm 1 mps 749 mmHg 79%
    23:00 +21°C° 0 mm 2 mps 749 mmHg 81%

    Pasado mañana, 22 Agosto, Jueves

    Tiempo Temperatura Precipitaciones Viento Presión Humedad
    00:00 +21°C° 0 mm 1 mps 749 mmHg 82%
    01:00 +21°C° 0 mm 1 mps 748 mmHg 84%
    02:00 +20°C° 0 mm 1 mps 748 mmHg 86%
    03:00 +20°C° 0 mm 1 mps 748 mmHg 86%
    04:00 +20°C° 0 mm 1 mps 748 mmHg 87%
    05:00 +19°C° 0 mm 1 mps 748 mmHg 87%
    06:00 +21°C° 0 mm 1 mps 748 mmHg 82%
    07:00 +23°C° 0 mm 1 mps 748 mmHg 77%
    08:00 +24°C° 0 mm 1 mps 748 mmHg 72%
    09:00 +25°C° 0 mm 1 mps 748 mmHg 69%
    10:00 +27°C° 0 mm 1 mps 748 mmHg 65%
    11:00 +28°C° 0 mm 1 mps 748 mmHg 62%
    12:00 +28°C° 0 mm 1 mps 748 mmHg 61%
    13:00 +28°C° 0 mm 1 mps 748 mmHg 59%
    14:00 +29°C° 0 mm 1 mps 747 mmHg 58%
    15:00 +28°C° 0.7 mm 2 mps 747 mmHg 65%
    16:00 +26°C° 0.7 mm 3 mps 747 mmHg 72%
    17:00 +25°C° 0.7 mm 4 mps 747 mmHg 79%
    18:00 +23°C° 0.4 mm 4 mps 748 mmHg 84%
    19:00 +21°C° 0.4 mm 4 mps 748 mmHg 89%
    20:00 +19°C° 0.4 mm 5 mps 748 mmHg 94%
    21:00 +19°C° 0.1 mm 4 mps 749 mmHg 94%
    22:00 +18°C° 0.1 mm 4 mps 749 mmHg 94%
    23:00 +17°C° 0.1 mm 4 mps 749 mmHg 94%

    23 Agosto, Viernes

    Tiempo Temperatura Precipitaciones Viento Presión Humedad
    00:00 +17°C° 0 mm 4 mps 749 mmHg 94%
    01:00 +17°C° 0 mm 4 mps 749 mmHg 94%
    02:00 +15°C° 0 mm 4 mps 750 mmHg 93%
    03:00 +15°C° 0 mm 4 mps 750 mmHg 93%
    04:00 +15°C° 0 mm 4 mps 750 mmHg 93%
    05:00 +14°C° 0 mm 4 mps 750 mmHg 93%
    06:00 +15°C° 0 mm 4 mps 750 mmHg 90%
    07:00 +17°C° 0 mm 4 mps 750 mmHg 86%
    08:00 +17°C° 0 mm 5 mps 750 mmHg 83%
    09:00 +19°C° 0 mm 4 mps 750 mmHg 78%
    10:00 +20°C° 0 mm 4 mps 750 mmHg 74%
    11:00 +21°C° 0 mm 4 mps 750 mmHg 69%
    12:00 +22°C° 0 mm 4 mps 750 mmHg 67%
    13:00 +22°C° 0 mm 4 mps 750 mmHg 66%
    14:00 +23°C° 0 mm 4 mps 750 mmHg 64%
    15:00 +22°C° 0 mm 4 mps 750 mmHg 66%
    16:00 +22°C° 0 mm 3 mps 750 mmHg 69%
    17:00 +21°C° 0 mm 3 mps 750 mmHg 72%
    18:00 +20°C° 0 mm 2 mps 750 mmHg 73%
    19:00 +18°C° 0 mm 2 mps 750 mmHg 75%
    20:00 +17°C° 0 mm 2 mps 751 mmHg 77%
    21:00 +16°C° 0 mm 2 mps 751 mmHg 79%
    22:00 +15°C° 0 mm 2 mps 751 mmHg 81%
    23:00 +15°C° 0 mm 2 mps 751 mmHg 82%

    24 Agosto, Sábado

    Tiempo Temperatura Precipitaciones Viento Presión Humedad
    00:00 +14°C° 0 mm 2 mps 751 mmHg 83%
    01:00 +14°C° 0 mm 2 mps 751 mmHg 84%
    02:00 +13°C° 0 mm 2 mps 751 mmHg 85%
    03:00 +13°C° 0 mm 2 mps 751 mmHg 86%
    04:00 +13°C° 0 mm 2 mps 751 mmHg 86%
    05:00 +13°C° 0 mm 2 mps 752 mmHg 87%
    06:00 +14°C° 0 mm 2 mps 752 mmHg 83%
    07:00 +16°C° 0 mm 3 mps 752 mmHg 79%
    08:00 +18°C° 0 mm 3 mps 752 mmHg 74%
    09:00 +19°C° 0 mm 3 mps 752 mmHg 68%
    10:00 +20°C° 0 mm 3 mps 752 mmHg 61%
    11:00 +21°C° 0 mm 3 mps 752 mmHg 55%
    12:00 +23°C° 0 mm 2 mps 752 mmHg 52%
    13:00 +23°C° 0 mm 2 mps 752 mmHg 50%
    14:00 +23°C° 0 mm 2 mps 752 mmHg 48%
    15:00 +23°C° 0 mm 2 mps 752 mmHg 52%
    16:00 +23°C° 0 mm 1 mps 752 mmHg 57%
    17:00 +22°C° 0 mm 1 mps 751 mmHg 61%
    18:00 +21°C° 0 mm 1 mps 751 mmHg 63%
    19:00 +19°C° 0 mm 1 mps 751 mmHg 66%
    20:00 +15°C° 0 mm 0 mps 752 mmHg 68%
    21:00 +16°C° 0 mm 1 mps 752 mmHg 69%
    22:00 +15°C° 0 mm 1 mps 752 mmHg 70%
    23:00 +15°C° 0 mm 1 mps 752 mmHg 71%

    25 Agosto, Domingo

    Tiempo Temperatura Precipitaciones Viento Presión Humedad
    00:00 +15°C° 0 mm 1 mps 752 mmHg 72%
    01:00 +14°C° 0 mm 2 mps 752 mmHg 74%
    02:00 +14°C° 0 mm 2 mps 751 mmHg 75%
    03:00 +14°C° 0 mm 2 mps 751 mmHg 78%
    04:00 +13°C° 0 mm 2 mps 751 mmHg 80%
    05:00 +13°C° 0 mm 2 mps 751 mmHg 83%
    06:00 +15°C° 0 mm 2 mps 751 mmHg 80%
    07:00 +17°C° 0 mm 2 mps 751 mmHg 76%
    08:00 +18°C° 0 mm 2 mps 751 mmHg 73%
    09:00 +20°C° 0 mm 2 mps 751 mmHg 69%
    10:00 +21°C° 0 mm 3 mps 751 mmHg 64%
    11:00 +22°C° 0 mm 3 mps 750 mmHg 59%
    12:00 +22°C° 0 mm 3 mps 750 mmHg 58%
    13:00 +24°C° 0 mm 3 mps 750 mmHg 56%
    14:00 +24°C° 0 mm 3 mps 750 mmHg 54%
    15:00 +24°C° 0 mm 3 mps 749 mmHg 58%
    16:00 +24°C° 0 mm 2 mps 749 mmHg 62%
    17:00 +23°C° 0 mm 2 mps 749 mmHg 66%
    18:00 +20°C° 0 mm 2 mps 749 mmHg 71%
    19:00 +19°C° 0 mm 2 mps 749 mmHg 75%
    20:00 +17°C° 0 mm 2 mps 749 mmHg 79%
    21:00 +17°C° 0 mm 2 mps 749 mmHg 82%
    22:00 +16°C° 0 mm 2 mps 749 mmHg 84%
    23:00 +16°C° 0 mm 2 mps 749 mmHg 87%
    Mostrar más